Weather History for CZKD - December, 2012

Change the Weather History Date:

Sunday, December 9, 2012

  Actual Average Record
Temperature  
Mean Temperature -21 °F -  
Max Temperature -14 °F - - ()
Min Temperature -28 °F - - ()
Degree Days  
Heating Degree Days 86    
Moisture  
Dew Point -26 °F    
Average Humidity 75    
Maximum Humidity 80    
Minimum Humidity 59    
Precipitation  
Precipitation 0.00 in - - ()
Sea Level Pressure  
Sea Level Pressure 30.29 in    
Wind  
Wind Speed 4 mph ()    
Max Wind Speed 7 mph    
Max Gust Speed -    
T = Trace of Precipitation, MM = Missing Value Source: Averaged Metar Reports

Daily Weather History Graph

Daily Weather History Graph

Search for Another Location

Airport or City:

Trip Planner

Search our weather history database for the weather conditions in past years. The results will help you decide how hot, cold, wet, or windy it might be!

Date:

Astronomy

Dec. 09, 2012 Rise Set
Actual Time 8:45 AM CST 3:51 PM CST
Civil Twilight 7:58 AM CST 4:38 PM CST
Nautical Twilight 7:10 AM CST 5:27 PM CST
Astronomical Twilight 6:24 AM CST 6:12 PM CST
Moon 3:43 AM CST (12/9) 1:30 PM CST (12/9)
Length of Visible Light 8h 39m
Length of Day
7h 05m
Waning Crescent, 18% of the Moon is Illuminated
Dec 9
Waning Crescent
Dec 13
New
Dec 19
First Quarter
Dec 28
Full
Jan 4
Last Quarter

Hourly Weather History & Observations

Time (CST) Temp. Windchill Dew Point Humidity Pressure Visibility Wind Dir Wind Speed Gust Speed Precip Events Conditions
12:00 AM -22 °F - -27 °F 66% 30.32 in - West 4.6 mph - -  
12:00 AM -21.6 °F -35.2 °F -26.9 °F 77% 30.32 in - West 4.6 mph - N/A   Unknown
1:00 AM -24.2 °F -38.1 °F -29.6 °F 76% 30.33 in - WSW 4.6 mph - N/A   Unknown
2:00 AM -26.1 °F -37.7 °F -31.5 °F 76% 30.34 in - WSW 3.5 mph - N/A   Unknown
3:00 AM -26.0 °F -37.5 °F -31.5 °F 75% 30.35 in - WSW 3.5 mph - N/A   Unknown
4:00 AM -26.7 °F -38.3 °F -32.3 °F 75% 30.36 in - SSW 3.5 mph - N/A   Unknown
5:00 AM -27.8 °F -39.6 °F -33.5 °F 74% 30.37 in - SW 3.5 mph - N/A   Unknown
6:00 AM -27 °F - -33 °F 59% 30.38 in - SW 4.6 mph - -  
6:00 AM -27.4 °F -41.9 °F -32.8 °F 75% 30.38 in - SW 4.6 mph - N/A   Unknown
7:00 AM -28.1 °F -40.0 °F -34.1 °F 73% 30.38 in - SW 3.5 mph - N/A   Unknown
8:00 AM -27.4 °F -39.2 °F -33.2 °F 74% 30.38 in - SW 3.5 mph - N/A   Unknown
9:00 AM -26.1 °F -37.7 °F -31.7 °F 75% 30.37 in - WSW 3.5 mph - N/A   Unknown
10:00 AM -23.8 °F -35.0 °F -29.4 °F 75% 30.38 in - WSW 3.5 mph - N/A   Unknown
11:00 AM -20.2 °F -33.5 °F -25.4 °F 77% 30.36 in - WSW 4.6 mph - N/A   Unknown
12:00 PM -19 °F - -24 °F 67% 30.33 in - SW 4.6 mph - -  
12:00 PM -18.6 °F -31.6 °F -23.8 °F 77% 30.33 in - SW 4.6 mph - N/A   Unknown
1:00 PM -17.1 °F -29.9 °F -22.5 °F 76% 30.31 in - SW 4.6 mph - N/A   Unknown
2:00 PM -14.6 °F -27.0 °F -19.5 °F 79% 30.28 in - SW 4.6 mph - N/A   Unknown
3:00 PM -15.2 °F -31.2 °F -20.0 °F 79% 30.28 in - SW 6.9 mph - N/A   Unknown
4:00 PM -16.6 °F -31.3 °F -21.5 °F 79% 30.27 in - SW 5.8 mph - N/A   Unknown
5:00 PM -17.5 °F -30.3 °F -22.5 °F 78% 30.25 in - SW 4.6 mph - N/A   Unknown
6:00 PM -16 °F - -21 °F 66% 30.22 in - SW 5.8 mph - -  
6:00 PM -16.4 °F -31.0 °F -21.1 °F 79% 30.22 in - SW 5.8 mph - N/A   Unknown
7:00 PM -16.1 °F -28.6 °F -20.9 °F 79% 30.19 in - SW 4.6 mph - N/A   Unknown
8:00 PM -16.2 °F -28.8 °F -21.1 °F 79% 30.17 in - SSW 4.6 mph - N/A   Unknown
9:00 PM -15.2 °F -27.6 °F -19.8 °F 79% 30.15 in - SW 4.6 mph - N/A   Unknown
10:00 PM -15.3 °F - -20.0 °F 79% 30.12 in - South 2.3 mph - N/A   Unknown
11:00 PM -14.4 °F -24.3 °F -18.9 °F 80% 30.09 in - SSW 3.5 mph - N/A   Unknown